Alexandria Esle, LA

5:12 PM CST on January 22, 2018 (GMT -0600)
Alexandria Esler Regional

Weather History for KESF - March, 2013

Change the Weather History Date:

Sunday, March 3, 2013

  Actual Average Record
Temperature  
Mean Temperature 43 °F -  
Max Temperature 60 °F 65 °F 83 °F (1976)
Min Temperature 26 °F 48 °F 26 °F (2013)
Degree Days  
Heating Degree Days 22    
Moisture  
Dew Point 28 °F    
Average Humidity 58    
Maximum Humidity 92    
Minimum Humidity 26    
Precipitation  
Precipitation 0.00 in - - ()
Sea Level Pressure  
Sea Level Pressure 30.20 in    
Wind  
Wind Speed 2 mph (SSW)    
Max Wind Speed 8 mph    
Max Gust Speed -    
Visibility 10 miles    
Events      
Averages and records for this station are not official NWS values.
T = Trace of Precipitation, MM = Missing Value Source: NWS Daily Summary

Daily Weather History Graph

Daily Weather History Graph

Search for Another Location

Airport or City:

Trip Planner

Search our weather history database for the weather conditions in past years. The results will help you decide how hot, cold, wet, or windy it might be!

Date:

Astronomy

Mar. 03, 2013 Rise Set
Actual Time 6:33 AM CST 6:09 PM CST
Civil Twilight 6:09 AM CST 6:33 PM CST
Nautical Twilight 5:41 AM CST 7:01 PM CST
Astronomical Twilight 5:12 AM CST 7:29 PM CST
Moon No Moon Rise 10:13 AM CST (3/3)
Length of Visible Light 12h 24m
Length of Day
11h 35m
Waning Gibbous, 63% of the Moon is Illuminated
Mar 3
Waning Gibbous
Mar 4
Last Quarter
Mar 11
New
Mar 19
First Quarter
Mar 27
Full

Hourly Weather History & Observations

Time (CST) Temp. Windchill Dew Point Humidity Pressure Visibility Wind Dir Wind Speed Gust Speed Precip Events Conditions
12:53 AM 28.9 °F - 26.1 °F 89% 30.26 in 10.0 mi Calm Calm - N/A   Clear
1:53 AM 28.0 °F - 26.1 °F 92% 30.26 in 10.0 mi Calm Calm - N/A   Clear
2:53 AM 28.4 °F - 24.8 °F 86% 30.25 in 10.0 mi Calm Calm - N/A   Clear
3:53 AM 27.0 °F - 24.1 °F 89% 30.26 in 10.0 mi Calm Calm - N/A   Clear
4:53 AM 26.1 °F - 23.0 °F 88% 30.26 in 9.0 mi Calm Calm - N/A   Clear
5:53 AM 26.1 °F - 23.0 °F 88% 30.28 in 9.0 mi Calm Calm - N/A   Clear
6:53 AM 26.1 °F - 23.0 °F 88% 30.28 in 10.0 mi Calm Calm - N/A   Clear
7:53 AM 33.1 °F - 30.0 °F 89% 30.30 in 10.0 mi Calm Calm - N/A   Clear
8:53 AM 39.9 °F 35.1 °F 28.9 °F 65% 30.28 in 10.0 mi SSE 6.9 mph - N/A   Clear
9:53 AM 44.1 °F - 28.0 °F 53% 30.28 in 10.0 mi Calm Calm - N/A   Clear
10:53 AM 48.9 °F - 27.0 °F 43% 30.27 in 10.0 mi Calm Calm - N/A   Clear
11:53 AM 52.0 °F - 26.1 °F 37% 30.25 in 10.0 mi Variable 4.6 mph - N/A   Clear
12:53 PM 54.0 °F - 25.0 °F 33% 30.22 in 10.0 mi SW 4.6 mph - N/A   Clear
1:53 PM 57.9 °F - 24.1 °F 27% 30.18 in 10.0 mi West 6.9 mph - N/A   Clear
2:53 PM 59.0 °F - 24.1 °F 26% 30.16 in 10.0 mi WSW 4.6 mph - N/A   Clear
3:53 PM 60.1 °F - 27.0 °F 28% 30.12 in 10.0 mi SSE 8.1 mph - N/A   Clear
4:53 PM 59.0 °F - 26.6 °F 29% 30.11 in 10.0 mi SSW 8.1 mph - N/A   Clear
5:53 PM 55.9 °F - 30.0 °F 37% 30.11 in 10.0 mi SSE 8.1 mph - N/A   Clear
6:53 PM 51.1 °F - 30.9 °F 46% 30.11 in 10.0 mi SSE 4.6 mph - N/A   Clear
7:53 PM 50.0 °F - 30.9 °F 48% 30.11 in 10.0 mi South 5.8 mph - N/A   Clear
8:53 PM 48.9 °F - 30.9 °F 50% 30.11 in 10.0 mi South 4.6 mph - N/A   Clear
9:53 PM 48.9 °F - 32.0 °F 52% 30.11 in 10.0 mi SSW 5.8 mph - N/A   Clear
10:53 PM 48.0 °F - 34.0 °F 58% 30.09 in 10.0 mi SSW 5.8 mph - N/A   Clear
11:53 PM 46.9 °F - 35.1 °F 63% 30.08 in 10.0 mi SSW 4.6 mph - N/A   Clear